www.pogodaiklimat.ru

Погода и климат >> Архив погоды >> Индонезия >> Самаринда


ПОГОДА в Самаринде

  • Прогноз погоды в Самаринде
  • Монитор погоды в Самаринде

АРХИВ ПОГОДЫ в Самаринде

Время (UTC), дата Ветер
(напр.,м/с)
 
Видим.   Явления Облачность Т
(С)
Тd
(С)
f
(%)
Тe
(С)
Тes
(С)
Комфортность P
(гПа)
Po
(гПа)
Тmin
(С)
Tmax
(С)
R
(мм)
R24
(мм)
S
(см)
12 16.09 Ю 2 2000 м дым {туман} 8/4 540 м
[Cu med, cong As op]
+28.0 +23.6 77 +38 +38 очень
душно
1010.5 1009.3 +32.8
00 17.09 ЮЗ 1 1000 м дым {туман} 10/10 540 м
[]
+27.0 +24.0 84 +37 +37 очень
душно
1013.3 1012.1 +25.0
03 17.09 Ю 2 2500 м дым {туман} 10/5 540 м
[Cu med, cong As op]
+31.2 +23.4 63 +42 +44 опасность
перегрева
1012.5 1011.3
06 17.09 Ю 3 3000 м дым {туман} 10/5 540 м
[Cu med, cong As op]
+32.4 +22.8 57 +42 +44 опасность
перегрева
1010.0 1008.8
09 17.09 Ю 3 3000 м дым {туман} 10/5 540 м
[Cu med, cong As op]
+30.2 +22.6 64 +40 +40 очень
душно
1010.0 1008.8
12 17.09 Ю 1 3000 м дым {туман} 10/5 540 м
[Cu med, cong As op]
+28.0 +23.6 77 +38 +38 очень
душно
1011.8 1010.6 +32.4
00 18.09 Ю 2 1000 м дым {туман} 10/5 540 м
[Cu med, cong As op]
+27.0 +24.0 84 +37 +38 очень
душно
1014.3 1013.1 +25.4
03 18.09 Ю 3 6000 м дым {туман} 9/5 540 м
[Cu med, cong As op Ci fib]
+32.2 +23.2 59 +43 +48 опасность
перегрева
1013.1 1011.9
06 18.09 ЮВ 3 6000 м дым {туман} 9/5 540 м
[Cu med, cong As op Ci fib]
+34.6 +21.8 47 +43 +47 опасность
перегрева
1009.8 1008.6
09 18.09 ЮВ 4 7000 м дым {туман} 8/4 540 м
[Cu med, cong As op Ci fib]
+32.2 +23.2 59 +43 +43 опасность
перегрева
1009.5 1008.3
12 18.09 Ю 2 6000 м дым {туман} 8/8 540 м
[]
+27.8 +23.1 76 +37 +37 очень
душно
1012.0 1010.8 +34.8
00 19.09 ЮЗ 2 2000 м дым {туман} 10/5 540 м
[Cu med, cong As op]
+27.2 +23.7 81 +37 +38 очень
душно
1014.4 1013.2 +25.0
03 19.09 Ю 1 5000 м дым {туман} 8/5 480 м
[Cu hum As trans Ci fib]
+32.0 +22.7 58 +42 +50 опасность
перегрева
1012.9 1011.7
06 19.09 З 2 6000 м дым {туман} 8/5 500 м
[Cu med, cong As op Ci fib]
+35.0 +21.2 45 +43 +49 опасность
перегрева
1009.8 1008.6
09 19.09 ЮВ 5 6000 м дым {туман} 8/5 540 м
[Cu med, cong As op Ci fib]
+31.2 +23.7 64 +42 +43 опасность
перегрева
1009.8 1008.6
12 19.09 ЮВ 2 6000 м дым {туман} 8/5 540 м
[Cu med, cong As op Ci fib]
+28.2 +23.8 77 +39 +39 очень
душно
1011.8 1010.6 +35.2
00 20.09 Ю 1 4000 м дым {туман} 8/5 540 м
[Cu med, cong As op]
+27.8 +24.3 81 +39 +40 очень
душно
1013.5 1012.3 +24.6
03 20.09 З 1 6000 м дым {туман} 8/5 540 м
[Cu med, cong As op Ci fib]
+31.8 +22.5 58 +41 +49 опасность
перегрева
1012.1 1010.9
06 20.09 ЮВ 3 6000 м дым {туман} 9/6 540 м
[Cu med, cong As op Ci fib]
+32.6 +23.1 57 +43 +46 опасность
перегрева
1009.4 1008.2
09 20.09 ЮВ 4 7000 м дым {туман} 8/5 540 м
[Cu med, cong As trans Ci fib]
+31.2 +22.1 58 +40 +40 очень
душно
1009.3 1008.1
12 20.09 Ю 1 7000 м дым {туман} 8/5 540 м
[Cu med, cong As op Ci fib]
+28.4 +23.7 76 +39 +39 очень
душно
1011.0 1009.8 +33.6
00 21.09 штиль 0 4000 м дым {туман} 6/4 540 м
[Cu med, cong As trans Ci fib]
+27.2 +24.0 83 +38 +41 очень
душно
1013.6 1012.4 +24.0
03 21.09 В 1 8000 м дым {туман} 8/5 540 м
[Cu med, cong As op Ci fib]
+31.6 +22.6 59 +41 +49 опасность
перегрева
1012.4 1011.2
06 21.09 ЮВ 4 8000 м дым {туман} 8/5 540 м
[Cu med, cong As op Ci fib]
+32.8 +23.6 59 +44 +48 опасность
перегрева
1009.4 1008.2
09 21.09 ЮВ 3 8000 м дым {туман} 8/5 540 м
[Cu med, cong As op Ci fib]
+31.6 +22.6 59 +41 +42 опасность
перегрева
1009.2 1008.0
12 21.09 ЮВ 2 7000 м дым {туман} 8/5 540 м
[Cu med, cong As op Ci fib]
+28.8 +22.6 69 +38 +38 очень
душно
1011.6 1010.4 +33.2
00 22.09 штиль 0 2000 м дым {туман} 8/4 540 м
[Cu hum As trans Ci fib]
+27.0 +24.0 84 +37 +40 очень
душно
1014.3 1013.1 +24.2
03 22.09 В 3 8000 м дым {туман} 9/5 540 м
[Cu med, cong As op Ci fib]
+31.4 +23.0 61 +42 +46 опасность
перегрева
1013.3 1012.1
06 22.09 В 4 8000 м дым {туман} 9/5 540 м
[Cu med, cong As op Ci fib]
+34.2 +22.3 50 +43 +47 опасность
перегрева
1010.3 1009.1
09 22.09 В 4 10 км 8/5 540 м
[Cu med, cong As op Ci fib]
+32.4 +23.2 58 +43 +43 опасность
перегрева
1010.2 1009.0
12 22.09 Ю 2 8000 м 6/4 540 м
[Cu med, cong As op Ci fib]
+28.6 +24.5 79 +41 +41 опасность
перегрева
1012.3 1011.1 +34.2
00 23.09 штиль 0 4000 м дым {туман} 8/5 540 м
[Cu med, cong As op]
+27.8 +24.9 84 +40 +41 очень
душно
1015.2 1014.0 +24.6
03 23.09 СВ 2 8000 м дым {туман} 8/5 540 м
[Cu med, cong As op Ci fib]
+32.0 +23.7 62 +43 +50 опасность
перегрева
1013.9 1012.7
06 23.09 В 5 8000 м дым {туман} 8/5 540 м
[Cu med, cong As op Ci fib]
+34.2 +21.3 47 +42 +45 опасность
перегрева
1010.7 1009.5
09 23.09 В 4 10 км 8/5 540 м
[Cu med, cong As op Ci fib]
+32.4 +22.5 56 +42 +42 опасность
перегрева
1010.2 1009.0

 

Местоположение метеостанции Самаринда (Индонезия): широта -0.62 долгота 117.15 высота над уровнем моря 230 м.

В архиве по умолчанию представлена погода в Самаринде за последнюю неделю. Архивные данные за месяц целиком и за предыдущие месяцы, начиная с января 2011 года, Вы можете получить, выбрав интересующий диапазон дат из раскрывающегося списка и нажав кнопку "Ввод!".


*Определитесь, кто Вы:
робот инопланетянин человек

Внимание! Время в таблицах - всемирное. Для получения местного времени необходимо прибавить поправку, которая равна 8 ч.

Смотрите также архив погоды в соседних городах и на ближайших метеорологических станциях:

Погода в Баликпапане (Индонезия) (77 км)
Погода в Муаратевехе (Индонезия) (253 км)
Погода в Палу (Индонезия) (287 км)
Погода в Маджене (Индонезия) (293 км)
Погода в Танджунгредепе (Индонезия) (307 км)
Погода в Котабару (Индонезия) (326 км)
Погода в Паоанкарая (Индонезия) (353 км)
Погода в Танджунгселоре (Индонезия) (386 км)
Погода в Посо (Индонезия) (407 км)
Погода в Банджармасине (Индонезия) (411 км)

Пояснения к столбцам:

Ветер - указаны скорость ветра в м/с - средняя за 10 мин, порывы в срок и между сроками (в фигурных скобках) и направление, откуда дует ветер: С - северный, СВ - северо-восточный, В - восточный, ЮВ - юго-восточный, Ю - южный, ЮЗ - юго-западный, З - западный, СЗ - северо-западный.
Видимость - горизонтальная дальность видимости в метрах или километрах. При видимости от 1 до 10 км при отсутствии осадков обычно наблюдается дымка, при ухудшении видимости до 1 км и менее - туман. В сухую погоду видимость может ухудшаться дымом, пылью или мглою.
Явления - указаны атмосферные явления, наблюдавшиеся в срок или в последний час перед сроком; фигурными скобками обозначены явления, наблюдавшиеся между сроками (за 1-3 часа до срока); квадратными скобками обозначены град или гололедные отложения с указанием их диаметра в мм.
Облачность - указаны через наклонную черту общая и нижняя облачность в баллах и высота нижней границы облаков в метрах; квадратными скобками обозначены формы облаков: Ci - перистые, Cs - перисто-слоистые, Cc - перисто-кучевые, Ac - высококучевые, As - высокослоистые, Sc - слоисто-кучевые, Ns - слоисто-дождевые, Cu - кучевые, Cb - кучево-дождевые. Подробнее классификацию облаков см. в Атласе облаков (PDF).
T - Температура воздуха - температура, измеренная на высоте 2 м над землей.
Td - Температура точки росы - температура, при понижении до которой содержащийся в воздухе водяной пар достигнет насыщения.
f - Относительная влажность воздуха - влажноcть воздуха, измеренная на высоте 2 м над землей.
Te - Эффективная температура - температура, которую ощущает одетый по сезону человек в тени. Характеристика душности погоды. При расчете учитывается влияние влажности воздуха и скорости ветра на теплоощущения человека.
Tes - Эффективная температура на солнце - температура, которую ощущает человек, с поправкой на солнечный нагрев. Характеристика знойности погоды. Зависит от высоты солнца над горизонтом, облачности и скорости ветра. Ночью, в пасмурную погоду, а также при ветре 12 м/с и более поправка равна нулю.
P - Атмосферное давление - приведенное к уровню моря атмосферное давление.
Po - Атмосферное давление - измеренное на уровне метеостанции атмосферное давление.
Tmin - Минимальная температура - минимум температуры воздуха на высоте 2 м над землей.
Tmax - Максимальная температура - максимум температуры воздуха на высоте 2 м над землей.
R - Количество осадков - Количество выпавших осадков за период времени, мм. При наведении курсора мыши на число - период времени, за который выпало указанное количество осадков.
R24 - Количество осадков - Количество выпавших осадков за 24 часа, мм.
S - Снежный покров - Высота снежного покрова, см. При наведении курсора мыши на число - состояние снежного покрова и степень покрытия местности в баллах.